sat.trackr.live / text

‹ back to catalog

STARLINK-35717

NORAD 66839 · 2025-280U

PAYLOAD ACTIVE UNKNOWN

§ Identity

Operator
Country
US
Launch date
2025-12-02
Launch site
AFWTR
Launch vehicle
Mass (kg)
RCS (m²)

Purposes: comms

External: N2YO · Heavens-Above · Gunter

§ Orbital elements

Epoch: 2026-09-20T13:05:06.575136Z

Period
96.11 min
Inclination
70.0020°
Eccentricity
0.0002975
Mean motion
14.98330609 rev/d
Perigee alt
570.0 km
Apogee alt
574.1 km
Semi-major
6,950.2 km
B*
1.6602e-4
RAAN
203.1408°
Arg perigee
272.4706°
Mean anomaly
87.6112°
Rev number
4,526

§ Raw data

STARLINK-357171 66839U 25280U   26263.54521499  .00001888  00000+0  16602-3 0  99992 66839  70.0020 203.1408 0002975 272.4706  87.6112 14.98330609 45267

JSON: /api/v1/satellites/66839 · /tle

For live sub-satellite position, see the globe view (requires WebGL).

§ Visibility from observer

Set your observer location to see the next 7 days of passes ≥ 10°. The values pass through the URL so the page stays shareable.

No JS? Fill the form by hand. The geolocation button needs JavaScript.